Regional Weather Roundup
Issued by NWS

Home | Current Version | Previous Version | Graphics & Text | Print | Product List | Glossary On
Versions: 1 2 3 4 5 6 7 8 9 10 11 12 13 14 15 16 17 18 19 20 21 22 23 24 25 26 27 28 29 30 31 32 33 34 35 36 37 38 39 40 41 42 43 44 45 46 47 48 49 50
000
ASUS43 KIND 062309
RWRIN

WEATHER ROUNDUP FOR INDIANA
NATIONAL WEATHER SERVICE INDIANAPOLIS IN
600 PM EST FRI MAR 06 2015

NOTE: "FAIR" INDICATES FEW OR NO CLOUDS BELOW 12,000 FEET WITH NO
SIGNIFICANT WEATHER AND/OR OBSTRUCTIONS TO VISIBILITY.

* - STATION DOES NOT REPORT WEATHER SUCH AS PRECIPITATION OR FOG.

+ - STATION NOT QUALITY CONTROLLED BY THE NATIONAL WEATHER SERVICE.
    USE DATA WITH CAUTION...ESPECIALLY DEWPOINT AND RELATIVE
    HUMIDITY OBSERVATIONS.

INZ001>003-010>013-019-020-070000-
NORTHWEST INDIANA

CITY           SKY/WX    TMP DP  RH WIND       PRES   REMARKS
GARY /AIRPORT/ CLEAR     27   9  46 SW14G32   30.24F WCI  15
KNOX *+          N/A     27  -4  26 SW16      30.25S WCI  14
LA PORTE +     CLEAR     25  12  58 SW15      30.24F WCI  13
MICHIGAN CITY+ CLEAR     27   9  46 S12G18    30.24F WCI  16
MONTICELLO +   CLEAR     27  12  53 S10       30.27S WCI  17
RENSSELAER +   CLEAR     27  16  63 SW13G18   30.27F WCI  16
VALPARAISO     CLEAR     24  10  55 SW18G25   30.24F WCI  10

$$

LMZ046-743>745-070000-
SOUTHERN LAKE MICHIGAN

STATION/POSITION TIME  TEMP WIND        PRES
                       AIR  DIR/SP/G
                 (UTC) (F)  (DEG/KT/KT) (MB)
MICHIGAN CITY    2300   25  180/ 14/ 17   N/A

$$

INZ004-005-014>016-021>024-070000-
NORTH CENTRAL INDIANA

CITY           SKY/WX    TMP DP  RH WIND       PRES   REMARKS
ELKHART        PTCLDY    25   7  46 S12       30.24  WCI  14
GOSHEN         MOCLDY    23  10  57 S13       30.24F WCI  11
LOGANSPORT +   CLEAR     23  12  63 S10       30.29R WCI  12
PERU/GRISSOM   CLEAR     26  11  53 SW12      30.26S WCI  15
ROCHESTER +    CLEAR     28  14  54 S10       30.26F WCI  19
SOUTH BEND     CLEAR     25   9  50 S15G24    30.23F WCI  13
WARSAW +       CLEAR     27  10  50 S9        30.25S WCI  17

$$

INZ006>009-017-018-025>027-070000-
NORTHEAST INDIANA

CITY           SKY/WX    TMP DP  RH WIND       PRES   REMARKS
ANGOLA *+      PTCLDY    21   9  58 S9        30.22F WCI  11
AUBURN +       CLEAR     27   9  46 S8        30.26F WCI  18
FORT WAYNE     MOCLDY    23  12  62 S13       30.28F WCI  11
HUNTINGTON +   CLEAR     24   8  49 S8        30.27F WCI  15

$$

INZ028-029-035-036-043>045-051>053-070000-
WEST CENTRAL INDIANA

CITY           SKY/WX    TMP DP  RH WIND       PRES   REMARKS
CRAWFORDSVL +  CLEAR     24   6  45 S16       30.30S WCI  11
GREENCASTLE +  CLEAR     28   5  37 S9        30.31F WCI  20
LAFAYETTE      CLEAR     27  12  53 SW10      30.30R WCI  17
TERRE HAUTE    CLEAR     27  11  51 S16       30.35S WCI  15

$$

INZ030>032-037>040-046>048-054>057-064-065-070000-
CENTRAL INDIANA

CITY           SKY/WX    TMP DP  RH WIND       PRES   REMARKS
CP ATTERBURY + CLEAR     32  10  40 S13       30.35F WCI  22
COLUMBUS       CLEAR     28   9  43 S17       30.37  WCI  16
FRANKFORT +    CLEAR     27  12  55 S13       30.29S WCI  16
GREENWOOD *+   CLEAR     30   3  31 SW12      30.33  WCI  21
INDIANAPOLIS   CLEAR     30   9  41 S16       30.30F WCI  19
-EAGLE CREEK   CLEAR     30   6  36 S13       30.30F WCI  20
KOKOMO *+        N/A    N/A N/A N/A MISG        N/A
MARION +       CLEAR     25  12  59 S14       30.29F WCI  13
MT COMFORT *+  CLEAR     27   7  43 S12       30.31F WCI  16
SHELBYVILLE    CLEAR     28  13  53 S16       30.33F WCI  16
ZIONSVILLE +   CLEAR     30   7  38 S13       30.29R WCI  20

$$

INZ033-034-041-042-049-050-058-059-070000-
EAST CENTRAL INDIANA

CITY           SKY/WX    TMP DP  RH WIND       PRES   REMARKS
MUNCIE         CLEAR     25  11  55 S16G24    30.29F WCI  12

$$

INZ060-061-067>069-081>083-085>088-070000-
SOUTHWEST INDIANA

CITY           SKY/WX    TMP DP  RH WIND       PRES   REMARKS
EVANSVILLE     CLEAR     31   8  38 S10       30.42F WCI  22
HUNTINGBURG *+ CLEAR     27  10  50 S9        30.42F WCI  17
WASHINGTON +   CLEAR     28   7  41 S13       30.38F WCI  17

$$

INZ062-063-066-070>080-084-089>092-070000-
SOUTH CENTRAL AND SOUTHEAST INDIANA

CITY           SKY/WX    TMP DP  RH WIND       PRES   REMARKS
BEDFORD +      CLEAR     30   1  29 S9        30.37F WCI  22
BLOOMINGTON    CLEAR     29   4  34 S15       30.35F WCI  18
NORTH VERNON + CLEAR     30  10  43 S13       30.38F WCI  20
SEYMOUR +      CLEAR     30  14  51 S10       30.39F WCI  21

$$




USA.gov is the U.S. government's official web portal to all federal, state and local government web resources and services.